Regional Weather Roundup
Issued by NWS

Home | Current Version | Previous Version | Text Only | Print | Product List | Glossary On
Versions: 1 2 3 4 5 6 7 8 9 10 11 12 13 14 15 16 17 18 19 20 21 22 23 24 25 26 27 28 29 30 31 32 33 34 35 36 37 38 39 40 41 42 43 44 45 46 47 48 49 50
000
ASUS43 KBIS 171202
RWRND

NORTH DAKOTA REGIONAL WEATHER ROUNDUP
NATIONAL WEATHER SERVICE BISMARCK ND
700 AM CDT TUE OCT 17 2017

NOTE: "FAIR" INDICATES FEW OR NO CLOUDS BELOW 12,000 FEET WITH NO
SIGNIFICANT WEATHER AND/OR OBSTRUCTIONS TO VISIBILITY.


NDZ001>003-009>011-017-171300-
NORTHWEST NORTH DAKOTA

CITY           SKY/WX    TMP DP  RH WIND       PRES   REMARKS
WILLISTON      CLOUDY    43  32  65 SW10      29.85F
6HR MIN TEMP:  36; 6HR MAX TEMP:  45;

MINOT          CLOUDY    49  32  52 SW12      29.81F
MINOT AFB      CLOUDY    49  32  53 W13       29.79F
$$

NDZ018>021-031>035-040>046-171300-
SOUTHWEST NORTH DAKOTA

CITY           SKY/WX    TMP DP  RH WIND       PRES   REMARKS
BISMARCK       CLOUDY    34  31  88 E5        29.93F
6HR MIN TEMP:  31; 6HR MAX TEMP:  40;

DICKINSON      CLEAR     46  27  47 W12       29.91S
GARRISON         N/A     43  36  76 VRB3      29.86F
6HR MIN TEMP:  39; 6HR MAX TEMP:  46;

HETTINGER ARPT CLOUDY    36  25  64 NW5       29.99S
$$

NDZ004>008-012>016-024-026-027-054-171300-
NORTHEAST NORTH DAKOTA

CITY           SKY/WX    TMP DP  RH WIND       PRES   REMARKS
GRAND FORKS    CLOUDY    35  32  88 S7        29.89S
GRND FRKS AFB  CLEAR     41  34  77 SW7       29.88F
DEVILS LAKE    CLEAR     44  35  70 S7        29.87F
$$

NDZ022-023-025-028>030-036>039-047>053-171300-
SOUTHEAST NORTH DAKOTA

CITY           SKY/WX    TMP DP  RH WIND       PRES   REMARKS
FARGO          CLEAR     40  35  83 S6        29.94S
6HR MIN TEMP:  37; 6HR MAX TEMP:  45;

JAMESTOWN      CLOUDY    35  30  82 S6        29.93S
$$





USA.gov is the U.S. government's official web portal to all federal, state and local government web resources and services.